Simultaneous Nadir Overpasses (SNOs) Predictions

Prediction of SNOs between GOES-16 and NOAA-20 Satellite Orbit:

Table of predicted SNOs for the next 14.0 days since TLE Epoch: 9/7/2024
Index Date Time (GOES-16) GOES-16 Lat,Lon NOAA-20 Lat,Lon Distance(km) Time Diff (sec)
1 09/07/2024 06:41:09 0.05, -75.20 1.00, -79.48 487.08 80
2 09/08/2024 06:25:02 0.05, -75.20 -0.01, -74.94 30.11 80
3 09/10/2024 18:25:29 -0.05, -75.21 -0.16, -75.70 55.77 80
4 09/11/2024 18:09:23 -0.05, -75.21 0.87, -71.16 461.58 80
5 09/13/2024 06:28:27 0.04, -75.22 0.33, -76.42 137.80 80
6 09/14/2024 06:12:21 0.03, -75.22 -0.70, -71.88 379.80 80
7 09/15/2024 18:31:34 -0.02, -75.23 -0.44, -77.19 222.53 80
8 09/16/2024 18:15:26 -0.02, -75.24 0.54, -72.64 295.67 80
9 09/18/2024 06:34:31 0.02, -75.25 0.64, -77.90 302.13 80
10 09/19/2024 06:18:24 0.02, -75.27 -0.41, -73.37 216.60 80
11 09/20/2024 18:37:37 -0.02, -75.29 -0.75, -78.66 384.14 80
